Location: Clyde
(45.1830°S, 169.3170°E)
Time: 09:39:08
(UTC+12:00)

PAYLOAD B - Pass Details

Date: 14 May 2021
Orbit: 849 x 871 km, 99.1° (Epoch: 15 June)

Event Time Altitude Azimuth Distance (km) Brightness Sun altitude
Rises 19:23:34 0° 167° (SSE) 3,494 7.2 -20.9°
Reaches altitude 10° 19:25:59 10° 167° (SSE) 2,547 6.5 -21.3°
Maximum altitude 19:31:39 82° 253° (WSW) 889 4.3 -22.3°
Drops below altitude 10° 19:37:14 10° 339° (NNW) 2,502 6.9 -23.3°
Sets 19:39:35 0° 340° (NNW) 3,427 7.7 -23.7°
